Location: Wanzleben
(52.0609°N, 11.4408°E)
Time: 16:19:45
(UTC+00:00)

COSMOS 2406 - Pass Details

Date: 18 September 2020
Orbit: 844 x 863 km, 71.0° (Epoch: 21 October)

Event Time Altitude Azimuth Distance (km) Brightness Sun altitude
Rises 20:46:27 0° 327° (NNW) 3,416 7.6 -28.8°
Reaches altitude 10° 20:48:57 10° 323° (NW) 2,477 6.6 -29.0°
Enters shadow 20:54:22 54° 251° (WSW) 1,027 3.6 -29.6°
